Location: Rounton
(54.4000°N, 1.3500°W)
Time: 14:46:33
(UTC+00:00)

Transit 4A - Pass Details

Date: 08 December 2021
Orbit: 864 x 981 km, 66.8° (Epoch: 20 January)

Event Time Altitude Azimuth Distance (km) Brightness Sun altitude
Rises 22:32:51 0° 289° (WNW) 3,537 - -54.6°
Reaches altitude 10° 22:35:47 10° 302° (WNW) 2,616 - -54.9°
Maximum altitude 22:40:49 26° 358° (N) 1,762 - -55.3°
Drops below altitude 10° 22:45:58 10° 54° (NE) 2,684 - -55.7°
Sets 22:49:01 0° 67° (ENE) 3,648 - -55.9°
